SCP
0 0 0 0 0 0 -0 -0 -0 0 0 0 0 0 0 0 0 0 0 -0 -0 -0 -0 -0 -0 -0 -0 -0 -0 -0 -0 0 0 0 -0 -0 -0 -0 -0 0 0 0 0 0 0 0 0 0 0
0 0 0 0 0 0 0 0 -0 0 0 0 0 0 0 0 0 -0 -0 -0 -0 -0 -0 -0 -0 -0 -0 -0 -0 -0 0 0 0 0 0 0 0 0 0 0 0 0 0 0 0 0 0 0 0
0 0 0 0 0 -0 -0 -0 -0 -0 0 0 0 0 0 0 -0 -0 -0 -0 -0 -0 -0 -0 -0 -0 -0 -0 -0 -0 -0 0 -0 0 0 0 0 0 0 0 0 0 0 0 0 0 0 0 0
0 0 0 0 0 -0 -0 0 0 -0 -0 0 -0 0 0 0 0 0 -0 -0 -0 -0 -0 -0 -0 -0 -0 -0 -0 -0 -0 -0 -0 -0 -0 -0 -0 0 0 0 0 0 0 0 0 0 0 0 0
0 0 0 0 0 -0 0 -0 0 0 -0 -0 0 0 0 0 -0 -0 -0 -0 -0 -0 -0 -0 -0 -0 -0 -0 -0 -0 -0 -0 -0 -0 -0 0 0 0 0 0 0 0 0 0 0 0 0 0 0
0 0 0 0 0 -0 -0 0 0 0 -0 0 -0 0 0 -0 -0 -0 -0 -0 -0 -0 -0 -0 -0 -0 -0 -0 -0 -0 -0 -0 -0 0 0 0 0 0 0 0 0 0 0 0 0 0 0 0 0
0 0 -0 -0 -0 -0 -0 0 0 0 -0 -0 -0 0 0 -0 -0 -0 -0 -0 -0 -0 -0 -0 -0 -0 -0 -0 -0 -0 -0 -0 0 0 0 0 0 0 0 0 0 0 0 0 0 0 0 0 0
0 0 -0 -0 -0 -0 0 -0 0 0 0 0 -0 0 0 0 -0 -0 -0 -0 -0 -0 -0 -0 0 0 -0 -0 -0 -0 -0 0 0 0 0 0 0 0 0 0 0 0 0 0 0 0 0 0 0
0 0 -0 -0 -0 0 -0 0 0 0 0 -0 -0 0 0 0 -0 -0 -0 -0 -0 -0 -0 -0 0 0 0 -0 0 -0 -0 0 0 0 0 0 0 0 0 0 0 0 0 0 0 0 0 0 0
0 0 -0 -0 0 -0 -0 -0 0 0 0 0 0 0 -0 0 -0 -0 -0 -0 -0 -0 0 0 0 0 -0 -0 -0 0 0 0 0 0 0 0 0 0 0 0 0 0 0 0 0 0 0 0 0
0 -0 -0 0 0 0 0 -0 0 -0 0 -0 -0 -0 0 -0 -0 -0 -0 -0 -0 -0 -0 0 0 -0 -0 -0 0 0 0 0 0 0 0 0 0 0 0 0 0 0 0 0 0 0 0 0 0
0 0 0 0 0 0 -0 -0 0 -0 0 -0 -0 -0 0 -0 -0 -0 -0 -0 -0 -0 -0 0 0 -0 -0 0 0 0 0 0 0 0 0 0 0 0 0 0 0 0 0 0 0 0 0 0 0
0 0 0 0 0 0 0 0 0 0 0 0 0 0 0 0 0 -0 -0 -0 -0 -0 -0 -0 -0 -0 0 0 0 0 0 0 0 0 0 0 0 0 0 0 0 0 0 0 0 0 0 0 0
0 0 0 0 0 0 0 0 0 0 0 0 0 0 0 0 0 0 0 -0 -0 -0 -0 -0 0 0 0 0 0 0 0 0 0 0 0 0 0 0 0 0 0 0 0 0 0 0 0 0 0
0 0 0 0 0 0 0 0 0 0 0 0 0 0 0 0 0 -0 -0 -1 -1 -1 -1 -0 0 0 0 0 0 0 0 0 0 0 0 0 0 0 0 0 0 0 0 0 0 0 0 0 0
0 -0 0 0 0 0 0 0 0 0 0 0 0 0 0 0 0 0 1 0 -0 -1 -1 -0 -0 0 0 0 0 0 0 0 0 0 0 0 0 0 0 0 0 0 0 0 0 0 0 0 0
-0 0 0 0 -0 0 0 0 0 0 -0 0 0 0 0 0 0 0 0 1 0 -1 -1 -0 0 0 0 0 0 0 0 0 0 0 0 0 0 0 0 0 0 0 0 0 0 0 0 0 0
0 0 0 0 -0 0 0 -0 -0 -0 -0 0 -0 0 0 0 1 1 -1 -0 1 0 -1 -0 0 0 0 0 0 0 0 0 0 0 0 0 0 0 0 0 0 0 0 0 0 0 0 0 0
0 0 0 -0 -0 -0 0 0 -0 0 0 0 0 0 0 0 0 0 2 2 1 0 -0 -0 -0 -0 0 0 0 0 0 0 0 0 0 0 0 0 0 0 0 0 0 0 0 0 0 0 0
-0 -0 -0 -0 0 0 0 0 0 -0 0 0 0 0 0 0 0 0 1 0 -0 0 0 -0 -0 -0 0 0 0 0 0 0 0 0 0 0 0 0 0 0 0 0 0 0 0 0 0 0 0
0 0 0 0 0 0 0 0 0 0 0 0 0 -0 0 -0 -0 -0 -0 0 0 0 0 -0 -0 -0 0 0 0 0 0 0 0 0 0 0 0 0 0 0 0 0 0 0 0 0 0 0 0
0 0 0 0 -0 -0 -0 -0 -0 -0 0 -0 0 0 -0 -0 -0 0 -0 0 1 0 0 0 0 0 0 0 0 0 0 0 0 0 0 0 0 0 0 0 0 0 0 0 0 0 0 0 0
-0 -0 0 -0 0 0 0 -0 0 0 -0 -0 -0 -0 -0 -1 -0 -0 0 0 0 0 0 0 0 0 0 0 0 0 0 0 0 0 0 0 0 0 0 0 0 0 0 0 0 0 0 0 0
0 0 0 0 0 -0 -0 -0 0 -0 0 0 0 0 0 0 0 0 1 1 0 0 0 0 0 0 0 0 0 0 0 0 0 0 0 0 0 0 0 0 0 0 0 0 0 0 0 0 0
0 0 0 0 0 0 -0 -0 0 0 -0 -0 -0 0 0 0 1 1 1 0 0 0 0 0 0 0 0 0 0 0 0 0 0 0 0 0 0 0 0 0 0 0 0 0 0 0 0 0 0
0 0 0 0 0 0 0 -0 0 -0 -0 -0 -0 -0 -0 0 1 1 1 1 0 0 0 0 0 0 0 0 0 0 0 0 0 0 0 0 0 0 0 0 0 0 0 0 0 0 0 0 0
-0 0 0 0 0 0 0 -0 -0 0 0 0 -0 -0 -1 -0 0 0 1 0 1 0 0 0 0 0 0 0 0 0 0 0 0 0 0 0 0 0 0 0 0 0 0 0 0 0 0 0 0
0 0 0 0 0 -0 0 0 -0 -0 -0 0 0 -0 -0 -0 -0 -0 0 0 0 0 0 0 0 0 0 0 0 0 0 0 0 0 0 0 0 0 0 0 0 0 0 0 0 0 0 0 0
0 0 0 0 0 0 0 0 0 -0 -0 -0 0 -0 -0 -0 -0 -0 0 0 0 0 0 0 0 0 0 0 0 0 0 0 0 0 0 0 0 0 0 0 0 0 0 0 0 0 0 0 0
0 0 0 0 0 0 0 0 0 0 -0 0 0 0 0 -0 -0 -0 -0 0 0 0 0 0 0 0 0 0 0 0 0 0 0 0 0 0 0 0 0 0 0 0 0 0 0 0 0 0 0
Wind_Speed_500mb
10 7 3 1 8 9 4 10 3 9 7 22 27 16 13 14 8 7 27 43 45 47 45 39 35 30 26 21 20 21 23 23 23 23 24 25 24 23 22 22 22 21 22 21 21 21 21 19 17
10 5 2 1 8 2 10 7 10 7 29 45 32 31 8 8 17 35 51 41 46 48 45 39 33 29 24 22 22 23 24 24 25 25 24 23 21 19 18 18 18 17 16 16 16 16 16 17 18
7 6 3 7 7 9 10 12 24 22 30 26 14 24 10 13 32 49 43 46 46 47 43 39 33 27 25 24 24 24 25 27 29 25 22 20 18 16 15 15 15 16 16 16 16 15 14 13 13
4 9 7 5 14 11 13 13 23 10 8 13 39 20 21 27 45 41 42 42 46 43 40 35 29 26 26 26 25 25 30 29 26 22 17 15 13 15 18 20 20 20 19 19 18 18 18 17 17
6 5 0 3 9 12 12 29 28 8 7 34 18 15 21 26 39 46 42 40 35 41 38 34 31 29 26 27 30 29 28 24 19 16 15 15 18 20 19 19 19 18 17 17 16 17 18 18 17
6 3 5 7 9 7 13 39 12 10 19 24 35 32 13 43 40 42 29 25 30 35 36 34 31 29 30 32 31 28 23 18 15 14 16 16 15 14 13 13 17 18 16 17 18 16 15 15 14
9 7 10 5 15 10 16 8 13 25 24 12 52 11 39 56 42 34 32 28 23 35 34 34 32 31 31 31 28 24 18 15 13 13 12 12 10 8 10 12 19 21 19 18 17 15 20 20 18
10 8 7 7 8 17 12 17 25 35 18 17 27 15 34 60 54 44 37 27 24 34 30 32 33 32 30 28 23 18 15 12 8 9 10 9 7 10 13 16 17 15 18 20 22 18 24 27 20
8 3 9 7 4 4 0 12 28 32 42 74 29 31 61 65 58 52 48 35 31 35 31 33 33 31 26 22 20 17 14 8 6 6 8 6 8 14 15 13 13 16 20 22 22 26 24 16 13
9 7 9 17 11 16 7 35 35 21 39 16 38 52 68 71 63 63 60 46 38 43 42 37 33 31 27 22 19 17 12 8 7 2 5 5 7 9 8 9 11 17 18 17 17 18 14 18 21
4 10 10 32 51 47 28 55 37 52 29 67 73 84 71 74 72 68 62 44 30 40 45 38 35 34 22 18 17 16 8 5 5 1 0 2 5 4 5 8 14 16 17 17 18 19 18 24 26
2 27 38 45 64 35 17 31 34 54 19 65 70 89 85 84 76 74 65 57 53 45 43 36 34 32 22 17 14 14 7 2 3 4 1 2 3 3 8 12 16 14 15 18 21 17 21 25 29
10 24 54 64 62 58 25 15 31 42 48 69 79 81 80 70 69 64 56 56 59 52 44 39 35 32 26 23 21 18 11 7 9 6 2 2 3 5 9 10 9 7 9 16 20 18 21 29 28
17 26 38 35 38 32 6 13 19 17 73 54 71 69 67 66 61 67 67 63 62 57 49 40 37 33 33 34 28 21 18 19 11 6 3 2 4 3 8 8 2 3 7 11 15 14 17 23 22
19 12 20 15 13 10 4 5 9 57 65 70 72 72 74 68 60 66 66 63 59 61 54 49 45 50 44 39 35 34 25 20 11 7 3 4 3 3 5 5 2 4 7 8 10 10 9 15 21
14 8 11 17 11 21 12 16 11 74 76 65 52 74 86 77 53 60 69 64 58 64 64 59 53 55 52 45 40 35 27 23 13 10 4 6 4 3 4 3 2 6 5 6 7 16 8 13 15
13 8 12 20 6 11 10 19 24 72 68 54 72 90 69 62 51 48 69 66 63 70 68 64 58 55 53 46 41 33 26 21 17 8 8 5 3 4 5 5 5 11 5 5 13 13 8 6 10
13 7 13 15 18 8 17 26 40 63 69 65 65 47 59 63 50 59 68 67 76 76 72 64 58 54 49 42 40 33 30 26 17 13 9 4 5 5 7 7 6 13 10 7 9 8 12 9 7
7 10 15 11 11 4 12 10 39 48 32 40 49 61 66 64 63 72 86 64 90 90 85 75 68 61 51 49 48 41 34 26 18 13 10 3 6 5 9 9 9 14 14 12 9 8 7 9 5
19 15 16 13 16 10 18 2 7 49 57 70 69 72 73 68 72 83 81 88 99 101 90 81 74 65 51 47 43 35 31 24 17 12 8 2 3 5 5 4 8 14 14 9 11 8 7 17 14
7 8 11 11 16 5 8 17 15 7 60 67 65 101 90 98 109 92 93 103 96 106 108 96 81 61 53 49 44 41 36 28 25 15 9 4 3 2 5 1 6 13 12 11 9 5 2 10 14
10 7 9 10 13 4 9 6 16 31 28 26 64 78 92 99 119 118 93 104 91 87 89 89 59 62 58 55 52 46 33 29 22 15 8 6 3 6 4 1 5 9 14 12 8 3 5 7 20
16 4 3 7 11 6 18 12 18 36 40 45 24 92 104 116 133 114 88 93 99 104 81 27 48 57 55 50 47 41 37 24 22 21 8 3 1 6 9 9 10 10 14 15 15 13 13 13 11
7 10 17 10 7 10 9 10 19 16 18 33 45 20 55 64 57 45 64 91 95 92 81 73 70 73 58 47 41 36 44 34 31 25 13 8 4 4 8 11 11 6 13 12 15 18 12 13 13
17 14 8 10 10 8 3 17 4 10 9 20 25 32 19 58 39 37 45 36 54 83 74 62 63 62 58 49 44 45 44 40 29 22 18 15 7 4 4 6 14 4 4 12 10 16 10 9 8
4 12 9 2 4 9 13 5 9 6 8 31 48 45 52 42 42 55 66 53 28 77 60 50 58 55 50 45 48 46 42 33 27 24 21 16 5 1 2 4 8 5 2 2 5 15 8 13 12
12 10 3 7 4 7 0 6 10 3 16 42 34 39 31 35 31 42 59 29 42 67 56 52 43 47 48 45 47 51 41 34 32 30 26 18 12 12 11 9 7 4 13 9 6 5 5 6 9
13 3 6 8 4 3 3 4 7 11 6 19 10 15 28 16 14 25 34 32 47 49 44 30 33 34 46 53 55 48 41 39 37 36 27 21 19 19 19 15 11 10 11 16 13 10 1 5 7
11 8 11 6 7 7 2 9 14 16 10 20 24 26 22 15 4 19 28 32 29 28 26 40 41 42 47 51 54 43 44 46 44 40 30 27 26 25 23 17 15 8 3 17 17 13 8 7 9
1 6 7 9 8 2 6 11 6 19 14 10 26 23 22 17 9 10 18 27 28 38 38 47 49 43 33 48 45 43 49 49 47 42 35 30 31 26 24 23 17 10 13 12 17 24 20 14 14
Wind_Direction_500mb
327 358 19 323 41 58 283 249 247 202 142 79 124 138 124 77 178 181 148 166 173 162 160 162 163 157 148 140 129 119 112 106 99 93 87 80 72 63 52 45 39 33 27 22 17 14 12 12 12
310 304 293 24 89 34 275 230 236 203 123 107 91 118 67 80 120 142 153 165 167 161 160 164 163 157 150 141 130 122 114 107 99 92 83 72 62 51 40 32 26 19 15 8 2 359 358 355 354
311 275 180 131 154 187 234 198 227 262 170 190 121 86 87 108 138 138 156 161 165 160 161 163 162 157 148 140 131 122 115 105 94 83 72 61 49 40 33 26 25 20 19 13 6 0 353 347 339
188 172 217 158 241 260 226 212 218 259 268 176 127 86 100 138 147 156 151 160 161 159 161 163 159 154 145 139 127 117 105 96 88 79 66 56 52 48 49 42 33 25 20 8 2 351 341 334 327
197 183 34 317 270 272 260 263 176 171 46 137 128 107 115 160 157 154 148 151 163 162 166 161 158 152 143 131 122 112 103 97 87 79 69 69 73 66 62 47 31 19 10 354 345 334 327 321 314
204 142 64 256 257 249 258 256 197 93 128 111 111 120 112 150 156 151 149 156 164 168 166 161 157 150 141 134 126 120 111 99 86 73 68 69 71 72 58 34 17 2 358 353 354 350 336 333 324
153 95 222 212 259 263 239 220 91 90 105 337 132 104 141 150 158 160 171 171 167 170 169 162 154 149 142 136 131 124 112 100 90 78 74 83 82 59 35 11 16 6 11 13 20 5 354 1 344
188 111 255 237 283 290 196 143 126 143 42 108 158 159 164 161 164 175 178 175 173 168 169 159 153 150 145 141 135 128 121 107 91 77 77 71 48 24 11 10 8 3 5 11 357 8 359 360 7
223 77 264 257 277 271 22 99 112 169 165 191 226 171 163 166 170 177 171 171 158 164 163 155 151 148 148 146 144 140 130 102 67 62 63 56 31 14 358 353 343 348 1 356 346 5 29 59 36
137 154 228 215 259 287 242 150 140 152 155 188 148 148 148 169 175 181 180 174 163 162 161 157 157 155 147 151 160 152 128 97 79 23 29 40 12 8 336 322 340 353 358 352 9 53 32 22 18
190 212 225 276 276 276 277 137 146 149 178 163 152 156 164 175 185 186 185 181 192 172 167 160 157 160 160 159 157 169 148 50 53 246 194 354 356 349 320 346 354 2 15 36 65 70 37 29 7
242 256 256 267 273 276 264 154 158 154 155 175 160 160 166 173 181 184 188 189 183 184 177 170 167 162 166 195 194 212 211 322 352 269 255 287 314 318 331 358 358 14 49 68 73 54 42 18 7
193 268 277 277 278 278 268 209 183 186 189 185 160 164 172 174 175 185 192 202 190 188 186 182 178 174 183 209 212 219 234 293 305 263 269 275 263 318 356 4 357 20 58 84 87 63 48 46 45
261 274 280 289 285 283 239 145 141 193 170 168 162 168 174 177 182 186 192 198 200 196 191 189 189 189 205 206 216 226 249 270 278 277 288 241 250 345 1 346 0 87 63 79 93 81 77 58 57
292 312 319 284 272 290 156 356 206 156 166 166 170 175 177 180 181 199 197 200 202 198 195 196 194 195 207 209 211 229 244 259 255 258 287 288 258 322 339 343 116 55 38 56 139 123 109 88 69
354 23 356 283 325 277 102 269 116 161 167 176 181 183 181 180 171 193 198 197 194 193 196 197 201 202 211 219 226 240 241 242 255 253 293 273 223 304 347 26 60 42 27 40 137 164 129 95 98
3 275 295 309 293 268 134 250 152 173 178 180 186 187 185 183 180 180 188 193 205 201 200 201 203 212 216 225 222 225 237 246 263 275 281 279 228 297 359 59 41 34 22 104 132 154 154 94 159
244 319 309 280 294 200 241 240 159 174 176 184 186 187 183 193 178 185 193 206 208 208 205 210 210 213 220 219 213 214 225 240 253 263 266 276 267 301 344 24 30 38 44 118 146 121 102 65 149
254 254 246 247 265 231 303 227 166 178 174 183 184 182 188 198 187 195 203 217 206 207 206 210 214 214 217 209 206 211 221 224 233 247 253 226 275 279 321 339 26 43 47 86 125 130 139 46 79
255 243 304 291 290 25 333 215 130 176 186 191 185 188 192 190 189 191 209 211 214 207 206 209 214 213 214 211 207 213 212 206 213 221 204 187 267 274 295 328 1 27 30 70 124 121 90 55 52
309 265 286 299 314 2 41 341 359 299 188 207 194 196 191 193 195 202 208 210 206 210 210 211 217 218 206 201 192 192 191 200 206 206 199 346 357 293 230 223 9 23 29 54 97 142 174 85 73
309 343 325 323 36 327 54 289 346 348 337 187 192 199 202 206 205 207 207 206 211 209 209 202 221 204 199 197 193 201 200 198 208 216 227 327 337 121 137 33 38 23 42 46 51 79 116 147 103
245 299 23 9 14 24 355 64 326 22 8 358 212 199 202 204 199 206 200 203 206 211 213 242 235 200 194 194 197 202 201 205 228 216 229 272 135 90 86 57 18 30 35 46 54 72 117 111 131
282 30 19 47 55 13 294 105 5 25 12 12 22 151 205 213 219 223 203 206 206 207 220 224 209 195 194 196 200 195 197 210 217 217 212 215 191 113 71 45 14 23 28 24 54 57 131 113 98
48 51 346 359 15 219 103 66 186 278 340 41 33 26 208 193 189 186 195 202 213 208 208 202 201 194 187 188 194 207 213 217 220 219 219 215 207 139 88 17 350 351 26 8 51 39 83 164 142
104 133 141 355 277 269 353 130 239 229 83 55 74 78 98 142 183 210 214 198 233 236 215 204 192 188 188 185 194 209 210 211 215 223 228 227 207 194 214 297 323 280 213 352 13 35 74 121 111
313 45 226 127 32 55 13 329 294 273 51 51 50 92 112 144 167 199 191 208 205 215 213 200 190 191 188 193 200 200 210 212 219 225 224 223 225 233 227 263 282 279 209 226 252 343 34 109 80
65 322 19 16 87 326 1 306 230 296 86 123 104 116 122 136 183 215 227 227 201 199 204 203 202 205 202 199 203 206 206 209 219 232 227 223 232 221 236 259 267 279 219 220 243 244 284 112 54
351 349 50 118 128 153 231 265 216 229 245 145 177 168 139 113 151 210 211 204 201 211 229 213 213 210 199 205 205 209 208 214 220 222 222 228 230 227 233 238 263 249 263 221 229 235 208 254 278
262 117 110 111 276 104 134 276 299 222 286 124 172 149 153 140 168 195 210 223 217 274 236 222 219 209 213 211 210 212 218 221 213 210 221 233 236 235 232 243 230 229 235 269 250 237 244 257 270
Wind_Speed_850mb
10 7 3 1 8 9 4 10 3 9 7 22 27 16 13 14 8 7 27 43 45 47 45 39 35 30 26 21 20 21 23 23 23 23 24 25 24 23 22 22 22 21 22 21 21 21 21 19 17
10 5 2 1 8 2 10 7 10 7 29 45 32 31 8 8 17 35 51 41 46 48 45 39 33 29 24 22 22 23 24 24 25 25 24 23 21 19 18 18 18 17 16 16 16 16 16 17 18
7 6 3 7 7 9 10 12 24 22 30 26 14 24 10 13 32 49 43 46 46 47 43 39 33 27 25 24 24 24 25 27 29 25 22 20 18 16 15 15 15 16 16 16 16 15 14 13 13
4 9 7 5 14 11 13 13 23 10 8 13 39 20 21 27 45 41 42 42 46 43 40 35 29 26 26 26 25 25 30 29 26 22 17 15 13 15 18 20 20 20 19 19 18 18 18 17 17
6 5 0 3 9 12 12 29 28 8 7 34 18 15 21 26 39 46 42 40 35 41 38 34 31 29 26 27 30 29 28 24 19 16 15 15 18 20 19 19 19 18 17 17 16 17 18 18 17
6 3 5 7 9 7 13 39 12 10 19 24 35 32 13 43 40 42 29 25 30 35 36 34 31 29 30 32 31 28 23 18 15 14 16 16 15 14 13 13 17 18 16 17 18 16 15 15 14
9 7 10 5 15 10 16 8 13 25 24 12 52 11 39 56 42 34 32 28 23 35 34 34 32 31 31 31 28 24 18 15 13 13 12 12 10 8 10 12 19 21 19 18 17 15 20 20 18
10 8 7 7 8 17 12 17 25 35 18 17 27 15 34 60 54 44 37 27 24 34 30 32 33 32 30 28 23 18 15 12 8 9 10 9 7 10 13 16 17 15 18 20 22 18 24 27 20
8 3 9 7 4 4 0 12 28 32 42 74 29 31 61 65 58 52 48 35 31 35 31 33 33 31 26 22 20 17 14 8 6 6 8 6 8 14 15 13 13 16 20 22 22 26 24 16 13
9 7 9 17 11 16 7 35 35 21 39 16 38 52 68 71 63 63 60 46 38 43 42 37 33 31 27 22 19 17 12 8 7 2 5 5 7 9 8 9 11 17 18 17 17 18 14 18 21
4 10 10 32 51 47 28 55 37 52 29 67 73 84 71 74 72 68 62 44 30 40 45 38 35 34 22 18 17 16 8 5 5 1 0 2 5 4 5 8 14 16 17 17 18 19 18 24 26
2 27 38 45 64 35 17 31 34 54 19 65 70 89 85 84 76 74 65 57 53 45 43 36 34 32 22 17 14 14 7 2 3 4 1 2 3 3 8 12 16 14 15 18 21 17 21 25 29
10 24 54 64 62 58 25 15 31 42 48 69 79 81 80 70 69 64 56 56 59 52 44 39 35 32 26 23 21 18 11 7 9 6 2 2 3 5 9 10 9 7 9 16 20 18 21 29 28
17 26 38 35 38 32 6 13 19 17 73 54 71 69 67 66 61 67 67 63 62 57 49 40 37 33 33 34 28 21 18 19 11 6 3 2 4 3 8 8 2 3 7 11 15 14 17 23 22
19 12 20 15 13 10 4 5 9 57 65 70 72 72 74 68 60 66 66 63 59 61 54 49 45 50 44 39 35 34 25 20 11 7 3 4 3 3 5 5 2 4 7 8 10 10 9 15 21
14 8 11 17 11 21 12 16 11 74 76 65 52 74 86 77 53 60 69 64 58 64 64 59 53 55 52 45 40 35 27 23 13 10 4 6 4 3 4 3 2 6 5 6 7 16 8 13 15
13 8 12 20 6 11 10 19 24 72 68 54 72 90 69 62 51 48 69 66 63 70 68 64 58 55 53 46 41 33 26 21 17 8 8 5 3 4 5 5 5 11 5 5 13 13 8 6 10
13 7 13 15 18 8 17 26 40 63 69 65 65 47 59 63 50 59 68 67 76 76 72 64 58 54 49 42 40 33 30 26 17 13 9 4 5 5 7 7 6 13 10 7 9 8 12 9 7
7 10 15 11 11 4 12 10 39 48 32 40 49 61 66 64 63 72 86 64 90 90 85 75 68 61 51 49 48 41 34 26 18 13 10 3 6 5 9 9 9 14 14 12 9 8 7 9 5
19 15 16 13 16 10 18 2 7 49 57 70 69 72 73 68 72 83 81 88 99 101 90 81 74 65 51 47 43 35 31 24 17 12 8 2 3 5 5 4 8 14 14 9 11 8 7 17 14
7 8 11 11 16 5 8 17 15 7 60 67 65 101 90 98 109 92 93 103 96 106 108 96 81 61 53 49 44 41 36 28 25 15 9 4 3 2 5 1 6 13 12 11 9 5 2 10 14
10 7 9 10 13 4 9 6 16 31 28 26 64 78 92 99 119 118 93 104 91 87 89 89 59 62 58 55 52 46 33 29 22 15 8 6 3 6 4 1 5 9 14 12 8 3 5 7 20
16 4 3 7 11 6 18 12 18 36 40 45 24 92 104 116 133 114 88 93 99 104 81 27 48 57 55 50 47 41 37 24 22 21 8 3 1 6 9 9 10 10 14 15 15 13 13 13 11
7 10 17 10 7 10 9 10 19 16 18 33 45 20 55 64 57 45 64 91 95 92 81 73 70 73 58 47 41 36 44 34 31 25 13 8 4 4 8 11 11 6 13 12 15 18 12 13 13
17 14 8 10 10 8 3 17 4 10 9 20 25 32 19 58 39 37 45 36 54 83 74 62 63 62 58 49 44 45 44 40 29 22 18 15 7 4 4 6 14 4 4 12 10 16 10 9 8
4 12 9 2 4 9 13 5 9 6 8 31 48 45 52 42 42 55 66 53 28 77 60 50 58 55 50 45 48 46 42 33 27 24 21 16 5 1 2 4 8 5 2 2 5 15 8 13 12
12 10 3 7 4 7 0 6 10 3 16 42 34 39 31 35 31 42 59 29 42 67 56 52 43 47 48 45 47 51 41 34 32 30 26 18 12 12 11 9 7 4 13 9 6 5 5 6 9
13 3 6 8 4 3 3 4 7 11 6 19 10 15 28 16 14 25 34 32 47 49 44 30 33 34 46 53 55 48 41 39 37 36 27 21 19 19 19 15 11 10 11 16 13 10 1 5 7
11 8 11 6 7 7 2 9 14 16 10 20 24 26 22 15 4 19 28 32 29 28 26 40 41 42 47 51 54 43 44 46 44 40 30 27 26 25 23 17 15 8 3 17 17 13 8 7 9
1 6 7 9 8 2 6 11 6 19 14 10 26 23 22 17 9 10 18 27 28 38 38 47 49 43 33 48 45 43 49 49 47 42 35 30 31 26 24 23 17 10 13 12 17 24 20 14 14
Wind_Direction_850mb
327 358 19 323 41 58 283 249 247 202 142 79 124 138 124 77 178 181 148 166 173 162 160 162 163 157 148 140 129 119 112 106 99 93 87 80 72 63 52 45 39 33 27 22 17 14 12 12 12
310 304 293 24 89 34 275 230 236 203 123 107 91 118 67 80 120 142 153 165 167 161 160 164 163 157 150 141 130 122 114 107 99 92 83 72 62 51 40 32 26 19 15 8 2 359 358 355 354
311 275 180 131 154 187 234 198 227 262 170 190 121 86 87 108 138 138 156 161 165 160 161 163 162 157 148 140 131 122 115 105 94 83 72 61 49 40 33 26 25 20 19 13 6 0 353 347 339
188 172 217 158 241 260 226 212 218 259 268 176 127 86 100 138 147 156 151 160 161 159 161 163 159 154 145 139 127 117 105 96 88 79 66 56 52 48 49 42 33 25 20 8 2 351 341 334 327
197 183 34 317 270 272 260 263 176 171 46 137 128 107 115 160 157 154 148 151 163 162 166 161 158 152 143 131 122 112 103 97 87 79 69 69 73 66 62 47 31 19 10 354 345 334 327 321 314
204 142 64 256 257 249 258 256 197 93 128 111 111 120 112 150 156 151 149 156 164 168 166 161 157 150 141 134 126 120 111 99 86 73 68 69 71 72 58 34 17 2 358 353 354 350 336 333 324
153 95 222 212 259 263 239 220 91 90 105 337 132 104 141 150 158 160 171 171 167 170 169 162 154 149 142 136 131 124 112 100 90 78 74 83 82 59 35 11 16 6 11 13 20 5 354 1 344
188 111 255 237 283 290 196 143 126 143 42 108 158 159 164 161 164 175 178 175 173 168 169 159 153 150 145 141 135 128 121 107 91 77 77 71 48 24 11 10 8 3 5 11 357 8 359 360 7
223 77 264 257 277 271 22 99 112 169 165 191 226 171 163 166 170 177 171 171 158 164 163 155 151 148 148 146 144 140 130 102 67 62 63 56 31 14 358 353 343 348 1 356 346 5 29 59 36
137 154 228 215 259 287 242 150 140 152 155 188 148 148 148 169 175 181 180 174 163 162 161 157 157 155 147 151 160 152 128 97 79 23 29 40 12 8 336 322 340 353 358 352 9 53 32 22 18
190 212 225 276 276 276 277 137 146 149 178 163 152 156 164 175 185 186 185 181 192 172 167 160 157 160 160 159 157 169 148 50 53 246 194 354 356 349 320 346 354 2 15 36 65 70 37 29 7
242 256 256 267 273 276 264 154 158 154 155 175 160 160 166 173 181 184 188 189 183 184 177 170 167 162 166 195 194 212 211 322 352 269 255 287 314 318 331 358 358 14 49 68 73 54 42 18 7
193 268 277 277 278 278 268 209 183 186 189 185 160 164 172 174 175 185 192 202 190 188 186 182 178 174 183 209 212 219 234 293 305 263 269 275 263 318 356 4 357 20 58 84 87 63 48 46 45
261 274 280 289 285 283 239 145 141 193 170 168 162 168 174 177 182 186 192 198 200 196 191 189 189 189 205 206 216 226 249 270 278 277 288 241 250 345 1 346 0 87 63 79 93 81 77 58 57
292 312 319 284 272 290 156 356 206 156 166 166 170 175 177 180 181 199 197 200 202 198 195 196 194 195 207 209 211 229 244 259 255 258 287 288 258 322 339 343 116 55 38 56 139 123 109 88 69
354 23 356 283 325 277 102 269 116 161 167 176 181 183 181 180 171 193 198 197 194 193 196 197 201 202 211 219 226 240 241 242 255 253 293 273 223 304 347 26 60 42 27 40 137 164 129 95 98
3 275 295 309 293 268 134 250 152 173 178 180 186 187 185 183 180 180 188 193 205 201 200 201 203 212 216 225 222 225 237 246 263 275 281 279 228 297 359 59 41 34 22 104 132 154 154 94 159
244 319 309 280 294 200 241 240 159 174 176 184 186 187 183 193 178 185 193 206 208 208 205 210 210 213 220 219 213 214 225 240 253 263 266 276 267 301 344 24 30 38 44 118 146 121 102 65 149
254 254 246 247 265 231 303 227 166 178 174 183 184 182 188 198 187 195 203 217 206 207 206 210 214 214 217 209 206 211 221 224 233 247 253 226 275 279 321 339 26 43 47 86 125 130 139 46 79
255 243 304 291 290 25 333 215 130 176 186 191 185 188 192 190 189 191 209 211 214 207 206 209 214 213 214 211 207 213 212 206 213 221 204 187 267 274 295 328 1 27 30 70 124 121 90 55 52
309 265 286 299 314 2 41 341 359 299 188 207 194 196 191 193 195 202 208 210 206 210 210 211 217 218 206 201 192 192 191 200 206 206 199 346 357 293 230 223 9 23 29 54 97 142 174 85 73
309 343 325 323 36 327 54 289 346 348 337 187 192 199 202 206 205 207 207 206 211 209 209 202 221 204 199 197 193 201 200 198 208 216 227 327 337 121 137 33 38 23 42 46 51 79 116 147 103
245 299 23 9 14 24 355 64 326 22 8 358 212 199 202 204 199 206 200 203 206 211 213 242 235 200 194 194 197 202 201 205 228 216 229 272 135 90 86 57 18 30 35 46 54 72 117 111 131
282 30 19 47 55 13 294 105 5 25 12 12 22 151 205 213 219 223 203 206 206 207 220 224 209 195 194 196 200 195 197 210 217 217 212 215 191 113 71 45 14 23 28 24 54 57 131 113 98
48 51 346 359 15 219 103 66 186 278 340 41 33 26 208 193 189 186 195 202 213 208 208 202 201 194 187 188 194 207 213 217 220 219 219 215 207 139 88 17 350 351 26 8 51 39 83 164 142
104 133 141 355 277 269 353 130 239 229 83 55 74 78 98 142 183 210 214 198 233 236 215 204 192 188 188 185 194 209 210 211 215 223 228 227 207 194 214 297 323 280 213 352 13 35 74 121 111
313 45 226 127 32 55 13 329 294 273 51 51 50 92 112 144 167 199 191 208 205 215 213 200 190 191 188 193 200 200 210 212 219 225 224 223 225 233 227 263 282 279 209 226 252 343 34 109 80
65 322 19 16 87 326 1 306 230 296 86 123 104 116 122 136 183 215 227 227 201 199 204 203 202 205 202 199 203 206 206 209 219 232 227 223 232 221 236 259 267 279 219 220 243 244 284 112 54
351 349 50 118 128 153 231 265 216 229 245 145 177 168 139 113 151 210 211 204 201 211 229 213 213 210 199 205 205 209 208 214 220 222 222 228 230 227 233 238 263 249 263 221 229 235 208 254 278
262 117 110 111 276 104 134 276 299 222 286 124 172 149 153 140 168 195 210 223 217 274 236 222 219 209 213 211 210 212 218 221 213 210 221 233 236 235 232 243 230 229 235 269 250 237 244 257 270